Regional Weather Roundup
Issued by NWS Lake Charles, LA

Home | Current Version | Previous Version | Text Only | Print | Product List | Glossary On
Versions: 1 2 3 4 5 6 7 8 9 10 11 12 13 14 15 16 17 18 19 20 21 22 23 24 25 26 27 28 29 30 31 32 33 34 35 36 37 38 39 40 41 42 43 44 45 46 47 48 49 50
000
ASUS44 KLCH 211510
RWRLCH
REGIONAL WEATHER ROUNDUP
NATIONAL WEATHER SERVICE LAKE CHARLES LA
900 AM CST SUN JAN 21 2018

Note: "fair" indicates few or no clouds below 12,000 feet with no
significant weather and/or obstructions to visibility.


ACROSS SOUTHEAST TEXAS

CITY           SKY/WX    TMP DP  RH WIND       PRES   REMARKS
BEAUMONT       PTSUNNY   64  62  93 SE8       30.04S
BEAUMONT CITY  CLOUDY    65  63  94 SE8       30.05R FOG
ORANGE         FOG       63  63 100 SE8       30.08R VSB 3/4
JASPER         CLOUDY    65  64  94 S7        30.07R
$$

ACROSS CENTRAL LOUISIANA

CITY           SKY/WX    TMP DP  RH WIND       PRES   REMARKS
LEESVILLE      CLOUDY    62  61  97 SE13      30.07R
FULLERTON      CLOUDY    61  60  97 CALM      30.06R FOG
ALEXANDRIA INT CLOUDY    56  55  97 SE10      30.09R FOG
ESLER FIELD    CLOUDY    55  55 100 VRB3      30.11S FOG
DERIDDER       CLOUDY    62  60  95 SE8       30.09R FOG
OAKDALE        CLOUDY    60  58  93 SE3       30.11R FOG
OPELOUSAS      FOG       55  55 100 SE8       30.12S VSB 1/2
$$

ACROSS SOUTHWEST AND SOUTH CENTRAL LOUISIANA

CITY           SKY/WX    TMP DP  RH WIND       PRES   REMARKS
SULPHUR        FOG       63  63 100 SE9       30.09R VSB 1
LAKE CHARLES   FOG       61  32  33 SE7       30.08R VSB 1/4
CHENNAULT INT  FOG       61  61 100 SE12      30.06F VSB 1/4
CAMERON PHI    FOG       54  54 100 E10       30.09R VSB 0
DEQUINCY       FOG       61  60  97 SE5       30.08R VSB 1/2
JENNINGS       CLOUDY    60  59  97 SE10      30.10S
LAFAYETTE      FOG       58  58 100 SE5       30.12R VSB 1/4
NEW IBERIA     FAIR      60  58  92 SE10      30.13R
ABBEVILLE      CLOUDY    63  63 100 SE10      30.12R
PATTERSON      FAIR      60  60 100 SE5       30.14R
SALT POINT       N/A     62  60  93 SE10      30.11R
$$

SELECTED SITES ACROSS THE REGION

CITY           SKY/WX    TMP DP  RH WIND       PRES   REMARKS
HOUSTON BUSH   CLOUDY    67  65  93 S12       30.01R
HOUSTON HOBBY  PTSUNNY   66  66 100 SE8       30.01R
GALVESTON      FAIR      62  62 100 SE15      30.03R FOG
COLLEGE STAT   CLOUDY    68  65  90 S14       29.96R
CONROE         CLOUDY    66  65  96 SE12      30.01R
HUNTSVILLE     CLOUDY    68  63  84 S9        29.99R
LUFKIN         CLOUDY    65  62  90 SE12      30.01R
SHREVEPORT     CLOUDY    64  62  93 SE15      30.02S
MONROE         CLOUDY    57  53  86 S8        30.12R
NATCHEZ MS     FAIR      60  55  83 SE15      30.14S
BATON ROUGE    PTSUNNY   59  55  87 E8        30.15R
N.O. INTL ARPT FAIR      64  60  87 SE9       30.17R
SLIDELL        FAIR      60  53  77 E5        30.18S
$$

MARINE REPORTS

STATION/POSITION TIME  SKY/WX   TEMP    WIND        PRES    VSBY
                                AIR SEA DIR/SP/G
                 (UTC)          (F)     (DEG/KT/KT) (MB)    (MI)
BUOY 30 S HIGH I 1350            57 50  130/ 12/ 12 1016.5
WVE H/P(F/S)=  3/ 6

SEA RIM ST PARK  1500            54     130/  9/ 11 1017.9R
PORT ARTHUR      1448            57 47  140/  6/  9 1017.7R
SABINE PASS N    1442            56 50  120/ 12/ 15 1019.1R
TEXAS POINT      NOT AVBL
CALCASIEU PASS   1448            51 47  130/ 10/ 13 1017.3R
LK CHARLES BEACH 1448            60 50              1018.1R
MARSH ISLAND     1400            51                   N/A
FRESH WATER LOCK 1448            54 45  110/  9/ 12 1019.5R
AMERADA PASS     1448            57 45  100/  8/ 12 1020.1R
$$



USA.gov is the U.S. government's official web portal to all federal, state and local government web resources and services.